Hoffman, NC

9:07 AM EDT on July 29, 2016 (GMT -0400)
Mackall Army Air Field

Weather History for KHFF - January, 2014

Change the Weather History Date:

Saturday, January 18, 2014

  Actual Average Record
Temperature  
Mean Temperature 34 °F -  
Max Temperature 43 °F 51 °F 61 °F (2015)
Min Temperature 24 °F 30 °F 15 °F (2005)
Degree Days  
Heating Degree Days 32    
Moisture  
Dew Point 14 °F    
Average Humidity 45    
Maximum Humidity 80    
Minimum Humidity 29    
Precipitation  
Precipitation 0.00 in - - ()
Sea Level Pressure  
Sea Level Pressure 30.05 in    
Wind  
Wind Speed 10 mph (West)    
Max Wind Speed 17 mph    
Max Gust Speed 31 mph    
Visibility 12 miles    
Events      
Averages and records for this station are not official NWS values.
T = Trace of Precipitation, MM = Missing Value Source: NWS Daily Summary

Daily Weather History Graph

Daily Weather History Graph

Search for Another Location

Airport or City:

Trip Planner

Search our weather history database for the weather conditions in past years. The results will help you decide how hot, cold, wet, or windy it might be!

Date:

Astronomy

Jan. 18, 2014 Rise Set
Actual Time 7:24 AM EST 5:32 PM EST
Civil Twilight 6:57 AM EST 5:59 PM EST
Nautical Twilight 6:26 AM EST 6:30 PM EST
Astronomical Twilight 5:56 AM EST 7:01 PM EST
Moon 8:05 PM EST (1/18) 8:30 AM EST (1/18)
Length of Visible Light 11h 02m
Length of Day
10h 07m
Waning Gibbous, 94% of the Moon is Illuminated
Jan 18
Waning Gibbous
Jan 24
Last Quarter
Jan 30
New
Feb 6
First Quarter
Feb 14
Full

Hourly Weather History & Observations

Time (EST) Temp. Windchill Dew Point Humidity Pressure Visibility Wind Dir Wind Speed Gust Speed Precip Events Conditions
12:56 AM 43.3 °F 36.8 °F 16.3 °F 34% 29.90 in 12.0 mi West 12.7 mph 19.6 mph N/A   Clear
1:56 AM 41.2 °F 34.5 °F 16.3 °F 37% 29.90 in 12.0 mi West 11.5 mph - N/A   Partly Cloudy
2:56 AM 36.7 °F 32.0 °F 18.7 °F 48% 29.93 in 12.0 mi WSW 5.8 mph - N/A   Clear
3:56 AM 34.7 °F 31.8 °F 20.5 °F 56% 29.94 in 12.0 mi West 3.5 mph - N/A   Clear
4:56 AM 32.0 °F 26.4 °F 21.6 °F 65% 29.94 in 12.0 mi West 5.8 mph - N/A   Clear
5:56 AM 32.4 °F 26.0 °F 22.5 °F 67% 29.97 in 12.0 mi West 6.9 mph - N/A   Scattered Clouds
6:56 AM 33.3 °F 26.4 °F 19.9 °F 58% 30.00 in 12.0 mi West 8.1 mph - N/A   Mostly Cloudy
7:56 AM 32.2 °F 25.0 °F 14.9 °F 49% 30.02 in 12.0 mi WNW 8.1 mph - N/A   Mostly Cloudy
8:56 AM 33.8 °F 26.4 °F 13.6 °F 44% 30.06 in 12.0 mi NW 9.2 mph 17.3 mph N/A   Clear
9:56 AM 33.6 °F 23.3 °F 8.8 °F 36% 30.11 in 12.0 mi WNW 16.1 mph 25.3 mph N/A   Partly Cloudy
10:31 AM 35.6 °F 25.9 °F 8.6 °F 33% 30.10 in 12.0 mi West 16.1 mph 23.0 mph N/A   Clear
10:35 AM 35.6 °F 26.6 °F 8.6 °F 33% 30.09 in 12.0 mi NW 13.8 mph 23.0 mph N/A   Clear
10:53 AM 35.6 °F 27.1 °F 8.6 °F 33% 30.09 in 12.0 mi West 12.7 mph 23.0 mph N/A   Clear
10:56 AM 34.9 °F 25.3 °F 8.6 °F 34% 30.11 in 12.0 mi WNW 15.0 mph 20.7 mph N/A   Clear
11:01 AM 35.6 °F 26.2 °F 8.6 °F 33% 30.08 in 12.0 mi NW 15.0 mph 21.9 mph N/A   Clear
11:17 AM 35.6 °F 26.2 °F 8.6 °F 33% 30.08 in 12.0 mi NW 15.0 mph 23.0 mph N/A   Clear
11:24 AM 35.6 °F 25.5 °F 8.6 °F 33% 30.08 in 12.0 mi West 17.3 mph 31.1 mph N/A   Clear
11:36 AM 35.6 °F 26.2 °F 10.4 °F 35% 30.08 in 12.0 mi NW 15.0 mph 23.0 mph N/A   Clear
11:44 AM 35.6 °F 26.2 °F 10.4 °F 35% 30.08 in 12.0 mi West 15.0 mph 25.3 mph N/A   Clear
11:56 AM 35.8 °F 27.3 °F 9.7 °F 34% 30.10 in 12.0 mi WNW 12.7 mph 25.3 mph N/A   Clear
12:30 PM 35.6 °F 25.9 °F 8.6 °F 33% 30.06 in 12.0 mi West 16.1 mph 24.2 mph N/A   Clear
12:56 PM 37.2 °F 29.1 °F 10.2 °F 33% 30.06 in 12.0 mi WNW 12.7 mph 19.6 mph N/A   Clear
1:56 PM 38.3 °F 30.5 °F 8.6 °F 29% 30.06 in 12.0 mi NW 12.7 mph 19.6 mph N/A   Clear
2:56 PM 38.8 °F 32.1 °F 9.5 °F 30% 30.06 in 12.0 mi WNW 10.4 mph 19.6 mph N/A   Clear
3:39 PM 39.2 °F 30.8 °F 10.4 °F 31% 30.03 in 12.0 mi NW 15.0 mph - N/A   Clear
3:56 PM 39.2 °F 33.0 °F 10.6 °F 31% 30.07 in 12.0 mi West 9.2 mph 19.6 mph N/A   Clear
4:56 PM 38.3 °F 32.5 °F 11.3 °F 33% 30.07 in 12.0 mi West 8.1 mph - N/A   Clear
5:56 PM 35.1 °F 32.2 °F 13.3 °F 41% 30.08 in 12.0 mi WSW 3.5 mph - N/A   Clear
6:56 PM 26.8 °F - 18.7 °F 72% 30.07 in 12.0 mi SSE 1.2 mph - N/A   Clear
7:56 PM 25.0 °F 19.3 °F 18.1 °F 75% 30.08 in 12.0 mi South 4.6 mph - N/A   Clear
8:56 PM 26.1 °F - 18.5 °F 73% 30.08 in 12.0 mi South 2.3 mph - N/A   Clear
9:56 PM 24.8 °F 20.5 °F 19.4 °F 80% 30.07 in 12.0 mi South 3.5 mph - N/A   Clear
10:56 PM 26.8 °F 18.5 °F 19.6 °F 74% 30.06 in 12.0 mi SSW 8.1 mph - N/A   Clear
11:56 PM 28.4 °F 22.2 °F 19.4 °F 69% 30.08 in 12.0 mi SW 5.8 mph - N/A   Partly Cloudy